Regional Weather Roundup
Issued by NWS Newport/Morehead, NC

Current Version | Previous Version | Graphics & Text | Print | Product List | Glossary On
Versions: 1 2 3 4 5 6 7 8 9 10 11 12 13 14 15 16 17 18 19 20 21 22 23 24 25 26 27 28 29 30 31 32 33 34 35 36 37 38 39 40 41 42 43 44 45 46 47 48 49 50
000 ASUS42 KMHX 250313 RWRMHX WEATHER ROUNDUP FOR EASTERN NORTH CAROLINA NATIONAL WEATHER SERVICE NEWPORT/MOREHEAD CITY NC 1000 PM EST FRI NOV 24 2017 NOTE: "FAIR" INDICATES FEW OR NO CLOUDS BELOW 12,000 FEET WITH NO SIGNIFICANT WEATHER AND/OR OBSTRUCTIONS TO VISIBILITY NCZ015>017-031-032-045>047-102-103-250400- NORTH COAST CITY SKY/WX TMP DP RH WIND PRES REMARKS EDENTON CLEAR 42 38 88 CALM 29.97R ELIZABETH CITY CLEAR 45 43 93 N5 29.96F KITTY HAWK CLEAR 54 48 80 CALM 29.93F MANTEO CLEAR 49 46 90 NE6 29.94F $$ NCZ045>047-081-094-103-104-250400- CENTRAL COAST CITY SKY/WX TMP DP RH WIND PRES REMARKS FRISCO CLEAR 55 52 89 N7 29.91F $$ NCZ095-097-098-100-101-250400- SOUTHERN COAST CITY SKY/WX TMP DP RH WIND PRES REMARKS BEAUFORT CLEAR 49 46 90 N8 29.93S CEDAR ISLAND NOT AVBL JACKSONVILLE NOT AVBL PINEY ISLAND NOT AVBL WILMINGTON PTCLDY 49 39 68 N5 29.94F $$ NCZ011>013-027>030-043-044-078>080-089-090>093-098-250400- COASTAL PLAIN CITY SKY/WX TMP DP RH WIND PRES REMARKS AHOSKIE CLEAR 32 32 98 CALM 29.98F CLINTON CLEAR 40 36 86 CALM 29.98R ELIZABETHTOWN NOT AVBL GOLDSBORO PTCLDY 40 33 78 CALM 29.95S GREENVILLE MOCLDY 36 36 100 CALM 29.99S HAVELOCK NOT AVBL KENANSVILLE PTCLDY 41 36 81 CALM 29.96S KINSTON NOT AVBL NEW BERN CLEAR 45 42 89 CALM 29.96S RICHLANDS PTCLDY 43 40 89 N5 29.95F ROCKY MOUNT CLEAR 34 34 100 CALM 29.97F WASHINGTON CLEAR 42 38 87 N3 29.96S WHITEVILLE CLEAR 48 34 57 CALM 29.95S $$ AMZ130-135-150-152-154-156-158-170-250-252-270-ANZ085-086-088-633-658-670-250400- MARINE OBSERVATIONS STATION/POSITION TIME TEMP WIND PRES WAVE SWELL AIR SEA DIR/SP/G HT/PER HT/PER (UTC) (F) (DEG/KT/KT) (MB) (FT/S) (FT/S) CHESAPEAKE LIGHT NOT AVBL 64 E VA BEACH 0250 59 61 70/ 8/ 10 1014.2 4/ 9 3/ 9 DUCK 0248 56 56 40/ 9/ 10 1013.5 2 E DUCK 0300 59 N/A 4/10 2/11 OREGON INLET 0248 10/ 7/ 10 1013.3 13E OREGON INLT 0248 61 N/A 5/10 5/10 HATTERAS CG 0248 56 58 10/ 11/ 13 1012.7 DIAMOND BUOY 0300 66 70 10/ 16/ 19 1012.2 CAPE LOOKOUT 0300 10/ 11/ 14 1013.1 BEAUFORT LAB 0248 50 56 10/ 9/ 11 1013.2 30 SE NEW RVR IN 0208 58 66 40/ 16/ 21 1013.1 30 SE NEW RVR IN 0300 66 N/A 6/ 7 2/11 27 SE WRIGHTSVLE 0208 60 71 40/ 19/ 25 1012.5 5 SE WRIGHTSVLE 0208 57 63 30/ 14/ 17 1013.1 225 S CAPE HAT 0250 71 76 110/ 10/ 12 1009.5 9/ 8 8/ 8 41 SE CHARLESTON 0300 62 74 10/ 16/ 19 1013.1 $$

USA.gov is the U.S. government's official web portal to all federal, state and local government web resources and services.